Tracking 25372 objects as of 23-Jan-2022
HD Live streaming from Space Station
objects crossing your sky now

OPS 9381 (GGTS)

Track OPS 9381 (GGTS) now!
OPS 9381 (GGTS) is classified as:


NORAD ID: 2207
Int'l Code: 1966-053A
Perigee: 33,651.1 km
Apogee: 33,864.0 km
Inclination: 5.7 °
Period: 1,333.3 minutes
Semi major axis: 40128 km
RCS: 0.8912 m2 (medium)
Launch date: June 16, 1966
Source: United States (US)
Launch site: AIR FORCE EASTERN TEST RANGE (AFETR)
aabbcc
Your satellite tracking list
Your tracking list is empty




NASA's NSSDC Master Catalog

Two Line Element Set (TLE):
1  2207U 66053A   22023.06278399 -.00000112  00000-0  00000+0 0  9998
2  2207   5.6954  55.4383 0026534 199.6448 342.5493  1.07999792218814
Source of the keplerian elements: AFSPC